Theta_e
295 294 294 295 296 296 296 297 298 299 299 299 301 305 310 312 311 312 312 312 312 311 309 308 309 311 310 308 307 308 308 308 307 307 307 307 306 307 308 307 307 307 307 307 310 310 309 311 313 314 314 314 314 314 314 314 314 318 320 318 317 317 315 316 317 316 314 313 311 310 311 313 315 316 315 314 315 316 315 315 316 317 317 316 316 315 317
295 294 295 295 296 297 297 298 299 300 300 301 304 308 311 312 311 312 312 312 312 310 308 308 310 311 310 309 308 307 307 307 307 307 307 306 306 308 309 307 307 307 307 308 310 310 309 311 312 312 313 314 313 312 315 316 315 318 319 318 318 317 316 316 317 317 316 315 314 314 313 314 315 315 315 315 314 313 314 316 316 316 318 318 317 315 318
295 294 295 296 297 298 299 299 301 301 301 303 306 309 311 311 311 311 312 313 312 310 308 308 310 311 311 310 309 307 307 306 306 306 306 306 305 307 308 306 306 307 307 309 309 308 309 310 310 310 310 311 311 312 315 316 318 320 318 317 317 317 318 319 317 317 317 316 315 315 314 314 314 314 314 314 313 313 315 316 315 315 316 317 317 316 320
294 294 295 296 298 300 300 300 303 304 303 304 307 310 310 311 311 310 311 312 312 310 308 307 309 310 311 309 306 306 308 306 305 306 306 306 305 306 305 305 307 307 308 312 311 306 307 309 308 308 308 308 308 310 313 313 316 320 318 315 316 316 316 318 319 318 316 315 313 311 311 314 315 314 313 313 313 313 313 314 316 316 316 317 319 320 323
294 295 296 298 300 301 301 302 304 306 305 305 307 309 310 310 311 310 310 311 310 309 307 306 307 307 308 308 305 305 307 306 306 307 306 306 305 305 304 304 306 307 308 312 311 306 306 307 307 306 305 305 307 309 312 310 311 317 317 314 317 318 315 315 318 317 314 313 312 310 311 313 313 312 312 312 313 314 314 315 317 317 316 317 319 321 325
294 295 297 299 301 302 301 302 305 306 307 306 307 309 309 309 308 308 309 309 309 309 308 306 307 307 306 307 307 307 307 306 307 307 306 307 305 305 306 304 304 305 305 308 309 307 307 307 307 307 304 304 307 310 312 309 307 313 316 314 318 320 316 313 314 315 313 312 312 311 311 311 310 310 311 311 313 315 317 317 315 314 316 316 317 318 324
294 296 298 300 302 302 302 302 304 305 307 307 308 309 308 307 307 307 307 307 306 306 306 304 306 307 307 308 308 308 308 306 305 305 306 309 306 305 307 306 304 304 304 305 307 307 308 307 307 308 305 305 309 311 313 311 307 309 315 315 315 317 315 314 314 315 313 312 312 312 313 311 309 310 310 311 312 314 315 316 314 314 316 315 315 319 322
295 297 299 301 302 303 302 302 303 303 305 306 307 308 307 307 308 307 307 306 304 304 304 304 307 307 306 306 305 306 307 306 305 304 306 308 307 305 306 306 304 304 304 305 306 305 306 306 306 307 305 306 309 310 311 311 307 307 313 316 315 314 314 314 315 316 315 314 312 313 313 312 310 310 310 311 312 313 314 314 315 316 318 317 318 321 318
295 298 300 301 302 303 303 303 303 303 304 306 307 307 307 308 308 307 308 307 304 303 301 302 307 307 305 305 305 305 307 305 304 305 305 306 306 305 305 305 305 305 304 305 306 304 304 304 304 305 305 305 306 307 307 308 308 307 310 314 316 316 315 314 315 316 317 315 313 314 313 311 311 312 311 310 312 313 314 314 313 315 318 320 321 321 316
296 298 300 301 302 303 303 303 303 303 304 305 305 307 307 307 308 307 308 307 303 301 302 302 305 304 303 304 305 305 305 303 303 305 304 304 305 305 305 305 305 305 306 306 304 303 303 303 303 303 303 303 303 304 304 305 306 307 308 311 314 315 315 315 315 316 316 314 314 315 314 314 314 312 309 309 311 312 313 314 312 312 315 318 320 318 312
296 299 300 301 302 303 302 303 303 304 304 303 304 306 307 307 308 306 307 307 302 299 303 305 305 303 302 302 303 304 305 303 303 304 305 305 304 304 304 304 304 306 306 304 303 302 303 303 303 302 301 302 301 301 303 304 305 306 307 310 313 315 316 315 314 316 316 313 313 315 317 317 314 310 307 307 309 310 311 313 311 311 313 315 315 312 309
296 299 300 301 302 302 302 303 303 304 305 304 303 306 307 307 307 305 306 308 303 299 303 304 302 303 302 300 302 303 304 304 303 302 304 305 304 304 304 303 303 305 304 303 303 303 304 304 303 303 302 302 302 302 305 307 306 306 306 308 312 315 315 313 312 314 315 313 314 317 318 315 311 308 306 306 308 308 309 310 310 309 311 312 311 309 307
297 299 301 301 302 302 302 303 303 303 304 305 304 306 306 306 306 304 304 306 303 301 303 302 299 301 301 300 302 302 301 301 301 300 302 304 304 305 304 303 303 303 303 303 303 304 306 307 307 307 306 305 305 306 307 308 307 306 306 307 310 313 313 311 311 313 313 313 314 316 315 311 309 308 306 306 307 307 308 311 310 308 310 310 308 307 306
297 299 300 301 301 302 302 302 303 303 303 304 304 305 305 305 304 303 303 305 303 299 300 301 300 301 301 300 301 302 301 301 301 301 302 303 303 303 302 302 302 302 303 303 303 304 306 308 308 308 307 307 309 309 309 309 308 306 304 305 308 310 312 313 312 311 312 314 314 313 313 311 308 308 306 305 305 305 307 310 310 308 308 308 306 305 305
297 298 300 301 301 302 302 302 303 302 301 303 303 303 303 303 303 302 302 304 303 299 298 300 301 301 301 300 300 301 303 302 302 302 301 301 301 302 301 301 302 303 303 303 304 305 306 308 308 308 308 308 308 308 308 309 309 307 304 305 308 309 310 313 313 310 310 313 313 312 314 313 309 306 305 304 304 303 304 308 309 307 307 307 305 304 304
297 298 300 301 301 301 302 302 302 301 301 301 301 301 301 301 301 302 301 302 303 300 298 299 299 299 300 299 299 300 302 302 302 303 303 302 301 300 300 301 302 303 302 303 305 307 307 308 307 307 307 305 305 307 308 307 308 308 306 306 307 308 308 310 311 310 309 311 312 312 312 311 307 305 304 303 303 302 303 309 311 306 305 307 305 304 304
297 298 300 301 301 301 301 302 302 301 300 300 300 299 300 300 300 301 301 301 301 299 298 298 299 299 299 300 299 299 300 300 300 301 303 303 300 299 301 302 302 302 302 304 306 307 307 307 306 306 306 304 304 307 307 305 306 307 306 305 306 307 307 308 309 309 308 309 310 309 309 308 306 304 303 303 303 302 306 313 312 305 304 306 305 304 305
296 298 300 301 301 301 301 301 301 301 300 300 300 299 299 299 299 300 300 299 299 298 298 299 299 299 299 300 300 299 299 299 299 299 301 300 299 299 300 301 301 302 302 305 307 306 305 304 305 307 307 304 304 306 305 304 305 305 304 304 305 306 306 306 307 307 307 308 309 308 308 306 304 303 303 302 303 306 310 312 308 303 303 305 304 304 305
296 298 300 301 301 301 301 301 301 301 301 300 300 299 299 299 299 299 299 299 299 299 299 299 299 300 299 299 299 299 299 299 299 300 301 301 299 299 299 300 301 301 302 304 305 304 303 302 302 304 306 304 303 304 304 304 304 303 302 304 304 304 305 305 305 305 305 306 308 308 307 305 302 302 303 303 306 310 309 305 303 302 304 304 304 304 304
296 298 300 301 301 301 301 301 301 301 301 300 299 299 299 299 299 299 299 299 299 299 299 299 300 300 300 300 300 299 299 299 299 300 301 301 299 300 301 302 301 301 302 304 304 302 302 303 301 301 304 303 302 303 303 303 302 302 303 304 304 303 304 305 304 304 304 306 307 308 308 305 302 302 304 305 306 307 304 301 302 303 304 304 303 302 302
296 297 299 301 301 301 301 301 301 302 301 300 299 300 300 299 299 299 299 299 300 300 300 300 300 300 300 300 300 300 300 300 300 300 300 300 299 300 302 302 300 301 301 303 303 301 301 302 302 301 302 302 302 302 302 302 303 302 302 303 304 303 304 304 303 303 305 307 307 306 305 303 301 302 303 303 302 302 302 301 302 303 303 303 302 300 300
296 296 298 301 301 301 301 301 301 302 301 300 300 300 300 300 300 300 300 300 300 300 300 300 300 300 300 300 300 300 300 300 300 300 300 300 299 300 301 300 300 300 300 300 301 302 301 301 302 302 302 302 303 302 301 302 304 303 302 303 304 303 303 303 303 302 303 305 304 303 302 301 301 301 301 301 301 302 302 302 302 302 303 302 301 300 300
296 296 298 300 301 301 301 301 300 301 302 301 300 300 300 300 300 300 300 300 300 300 300 300 300 300 300 300 301 301 300 300 300 299 300 300 300 299 300 300 300 300 300 300 301 302 302 301 301 301 301 301 301 302 302 302 303 302 302 302 302 302 301 302 303 302 302 302 302 301 301 301 301 301 301 301 302 302 302 302 302 302 302 302 301 301 300
296 296 297 298 299 300 300 299 298 300 301 302 301 301 300 300 300 300 300 300 300 300 300 300 300 300 300 300 301 301 300 300 299 299 299 300 300 300 300 300 300 300 300 300 300 300 301 300 299 301 301 299 300 301 302 302 301 301 301 302 302 301 301 302 302 302 302 303 302 301 301 301 301 301 301 301 302 302 302 302 302 301 302 302 302 301 300
297 296 297 297 297 298 298 297 298 299 300 302 302 301 300 300 300 300 300 300 300 300 300 300 300 300 300 301 300 300 300 299 299 299 300 300 300 300 300 300 300 300 300 300 300 300 300 300 300 301 301 299 299 300 300 301 301 300 301 302 301 301 302 302 302 301 302 302 301 300 301 301 301 302 302 301 302 302 302 302 302 302 302 302 302 302 301
297 297 297 297 297 297 297 297 298 299 300 301 302 302 301 300 300 300 300 300 300 300 300 300 300 300 301 301 300 300 300 299 299 299 299 299 299 300 300 300 300 300 300 300 300 300 300 299 300 301 301 300 300 300 300 301 300 300 301 301 300 301 301 301 301 302 302 301 301 302 302 302 301 301 301 301 302 302 302 303 303 303 302 302 302 302 302
297 297 297 297 297 297 297 297 297 298 298 300 301 302 302 301 301 301 300 300 301 301 301 300 300 300 300 300 300 300 299 299 299 299 299 299 299 299 299 299 300 300 300 301 301 300 300 300 300 299 299 299 299 299 299 300 300 301 302 300 299 301 302 301 301 302 302 302 302 302 302 303 302 301 301 302 302 303 303 303 303 302 302 302 302 302 301
296 297 297 296 296 297 296 297 297 298 298 299 300 301 302 302 302 301 301 301 301 301 301 300 300 300 300 300 300 300 299 299 299 299 299 299 299 299 299 299 300 300 301 301 300 299 299 299 298 297 297 298 299 299 298 299 300 302 302 300 299 301 302 301 301 302 302 302 301 301 302 303 302 301 301 302 302 303 302 302 302 302 301 301 301 301 301
296 297 297 297 296 296 296 297 298 299 299 299 300 301 302 302 302 301 301 301 301 300 300 300 300 300 300 300 300 299 300 299 299 299 299 299 299 299 299 299 300 300 300 300 299 298 297 297 297 297 298 299 299 300 299 299 300 301 301 299 299 300 301 301 302 302 301 301 301 301 302 302 302 302 302 302 302 302 301 301 301 301 300 300 300 300 300
296 297 297 297 297 296 296 297 298 299 299 299 300 301 301 302 302 301 301 301 300 300 300 301 301 300 300 300 300 300 300 300 300 299 299 299 299 299 299 299 299 300 300 299 299 298 297 297 297 298 298 298 299 299 299 299 300 301 300 299 300 301 301 301 302 302 301 301 301 301 302 302 301 302 301 301 301 300 300 300 300 299 299 299 300 300 300
296 296 297 297 296 296 295 296 299 299 299 299 301 300 300 301 301 302 301 301 300 300 300 301 301 300 299 300 300 300 299 300 300 299 299 299 299 299 299 299 299 299 300 299 298 298 297 296 297 298 298 298 299 299 299 300 301 300 299 299 300 302 302 302 302 302 301 301 301 301 301 301 300 300 300 300 299 299 298 299 298 298 298 298 298 299 299
296 296 296 296 296 296 296 296 299 300 299 300 301 301 300 300 301 302 301 301 300 301 301 301 300 299 299 299 300 299 299 299 299 299 299 299 299 299 299 299 299 299 299 299 298 298 297 297 297 298 298 298 299 299 299 300 300 299 299 300 301 301 302 302 302 301 301 301 301 301 301 300 300 300 300 300 299 299 298 298 298 297 297 297 297 297 297
296 296 296 296 295 296 295 296 298 300 300 301 301 300 298 299 301 302 301 300 301 301 301 300 300 299 299 300 300 299 300 299 299 299 299 299 299 299 299 299 299 299 299 298 298 298 298 298 298 298 298 298 299 299 299 299 298 298 299 300 301 301 301 301 301 301 301 301 301 301 301 301 301 301 300 300 299 299 298 298 298 297 297 297 297 297 297
295 295 296 296 296 297 297 298 300 301 301 300 300 299 299 299 301 302 301 301 301 301 300 300 300 300 299 300 300 299 299 299 299 299 299 299 299 299 299 299 299 299 298 298 297 297 298 298 298 298 298 297 297 298 298 298 297 298 299 301 301 301 301 301 301 301 301 300 300 300 300 300 300 300 300 300 299 298 298 298 298 297 297 297 297 297 297
296 297 298 299 299 299 299 300 300 300 299 298 298 299 299 299 300 302 302 301 301 300 300 300 300 300 300 300 300 300 299 299 298 298 299 299 299 299 299 299 298 298 298 297 297 297 297 297 298 297 296 296 297 298 298 298 297 298 300 301 301 301 301 300 301 301 300 300 300 300 299 299 299 299 299 299 298 298 298 298 297 297 297 297 297 297 297
297 298 299 299 300 300 299 299 299 298 297 297 297 297 298 298 299 301 302 301 300 300 299 299 300 300 300 300 300 299 299 299 298 298 298 299 299 298 299 299 298 297 297 297 297 297 297 297 297 297 296 296 297 297 297 297 297 298 299 300 300 300 299 299 300 300 300 300 300 299 299 298 298 298 299 298 298 298 298 297 297 297 297 297 297 297 297
299 300 300 300 300 300 300 300 299 298 297 296 297 298 299 299 299 300 301 300 300 300 300 300 300 298 298 299 299 299 299 299 298 298 298 298 298 298 298 298 297 297 297 297 296 296 297 297 297 297 297 296 296 296 297 298 298 298 298 298 298 298 298 298 298 299 299 299 299 299 298 298 298 298 298 298 298 297 297 297 297 297 297 297 297 297 297
300 301 301 301 300 300 301 301 299 297 296 297 299 300 300 300 300 300 300 300 301 300 300 300 299 298 298 299 299 299 299 298 298 298 298 297 297 297 297 296 296 297 296 296 295 296 296 296 296 296 296 296 296 297 297 298 298 298 298 298 298 298 298 298 298 298 298 298 298 298 298 298 298 298 298 297 297 297 297 297 297 297 297 296 296 296 296
301 301 301 300 299 299 300 299 297 297 297 299 301 300 299 300 300 300 299 300 300 300 299 300 299 298 299 299 299 299 298 298 298 298 298 297 297 298 297 296 296 296 296 296 296 296 297 296 295 295 296 297 297 297 298 298 298 298 298 298 298 298 298 298 298 298 298 298 298 298 298 298 298 298 298 297 297 297 296 296 297 297 297 297 296 296 296
301 300 299 298 298 298 298 298 298 298 299 300 300 299 299 299 299 299 299 299 299 299 299 299 298 298 299 299 299 299 298 298 299 298 298 297 297 297 296 296 296 296 297 296 295 296 297 296 295 295 297 298 297 297 298 298 298 298 298 298 298 298 298 298 298 298 297 297 298 298 298 298 298 298 298 297 297 296 296 296 297 297 297 297 296 296 297
300 300 299 298 298 298 299 299 299 299 299 299 299 299 298 298 298 298 299 300 299 298 298 299 299 299 299 299 299 299 299 298 298 298 298 297 297 297 297 296 295 296 297 296 295 295 297 297 296 296 297 298 297 298 298 298 297 297 297 297 298 298 298 298 298 298 298 298 298 298 298 298 298 298 298 298 297 296 296 297 297 297 297 297 296 296 297
300 299 298 298 298 299 299 299 299 298 298 299 299 298 296 297 297 298 298 298 298 298 298 299 299 299 299 299 299 299 299 298 298 298 298 297 296 296 297 295 295 297 297 295 294 296 297 297 297 297 297 297 297 298 298 298 297 297 297 297 297 297 297 298 298 298 298 298 298 298 298 297 298 298 298 297 297 297 297 297 297 297 297 297 296 296 296
300 298 298 299 299 299 299 298 298 298 298 299 299 298 297 297 297 297 297 297 297 298 299 299 299 299 299 299 298 298 298 298 298 298 297 296 296 296 297 297 296 296 295 294 295 297 297 297 297 297 297 297 298 298 298 298 297 297 297 297 297 297 297 297 297 298 298 298 297 297 297 297 297 297 297 297 297 297 297 297 297 297 297 297 296 296 296
299 298 299 299 298 298 298 298 297 297 298 298 299 299 298 298 297 297 298 298 298 299 299 299 299 299 299 298 298 298 298 298 298 297 297 295 295 297 298 297 295 294 294 295 296 295 295 296 296 296 296 297 298 298 298 298 297 297 297 297 297 297 297 297 298 298 298 298 298 297 297 297 297 297 297 297 297 297 297 297 297 297 297 297 297 296 296
299 299 299 298 297 297 298 298 297 297 298 298 299 300 300 299 299 299 299 299 299 299 300 299 299 299 298 298 298 298 298 297 298 297 295 295 296 297 296 295 294 293 294 295 295 294 295 296 297 296 296 297 298 298 298 297 297 297 297 297 297 297 297 297 297 298 298 298 298 298 297 297 297 297 297 297 297 297 297 297 297 297 297 297 297 296 296
299 298 298 298 297 296 296 298 299 298 297 297 298 299 299 299 299 299 299 299 299 300 300 299 299 299 298 297 298 298 297 298 297 296 294 295 297 296 294 294 295 295 295 295 296 296 296 297 297 296 297 298 298 298 298 297 297 297 297 297 297 297 297 297 297 297 297 298 298 298 298 297 297 297 297 297 297 297 297 297 297 297 297 297 297 297 297
298 297 297 298 298 296 296 298 298 297 296 296 297 298 298 299 299 299 299 299 299 300 300 299 299 299 298 297 297 297 297 297 297 295 294 296 296 295 294 295 296 296 296 297 297 297 296 296 297 297 298 298 298 297 298 297 297 297 297 297 297 297 297 297 298 298 298 298 298 298 298 298 297 297 297 297 297 297 297 297 297 297 297 297 297 297 297
298 298 298 298 297 296 296 297 297 296 296 297 297 298 299 299 299 299 299 299 299 300 299 299 298 298 298 297 297 296 296 296 297 296 294 295 296 296 296 297 296 294 294 296 297 297 296 297 297 297 297 297 298 298 298 298 298 298 297 297 297 297 298 298 297 298 298 298 298 298 298 298 297 298 298 298 298 297 297 297 297 297 297 297 297 297 297
298 298 298 297 296 295 295 296 297 296 297 297 298 298 299 299 299 299 299 299 299 299 299 298 299 299 297 296 296 297 296 296 296 295 295 296 297 296 296 297 297 295 294 294 295 296 297 297 297 298 298 298 298 298 298 298 298 298 298 298 298 297 297 297 297 297 297 297 297 298 298 297 298 298 297 297 298 298 297 297 297 297 297 297 297 297 297
298 298 298 297 297 296 296 297 297 297 297 297 298 298 299 299 299 298 299 299 298 299 298 298 298 297 295 295 297 298 296 295 295 295 296 296 296 294 294 296 297 297 296 295 296 297 297 297 297 298 298 298 298 298 298 298 298 298 298 298 298 297 297 297 297 297 297 297 297 297 297 297 297 297 297 297 297 297 297 297 297 297 297 297 297 297 297
299 298 298 298 298 298 297 298 299 299 298 298 298 299 299 299 299 299 299 298 298 299 298 298 297 297 297 297 298 297 296 295 295 295 295 294 293 294 296 297 296 296 297 297 297 297 297 298 298 298 298 298 298 298 298 298 298 298 298 298 298 297 297 297 297 297 297 297 297 297 297 297 297 297 297 297 297 297 297 297 297 297 297 297 297 297 297
299 298 298 298 298 297 297 298 299 298 298 298 299 299 299 299 299 298 298 298 298 299 298 297 296 297 298 297 296 295 295 296 296 296 295 294 293 294 297 297 296 296 298 298 298 298 298 298 298 298 298 298 298 298 298 298 298 298 297 297 297 297 297 297 297 297 297 297 297 297 297 297 297 297 297 297 297 297 297 297 297 297 297 297 297 297 297
Wind_Speed
6 5 4 4 5 7 9 10 9 6 3 1 3 4 7 6 4 5 8 7 3 1 2 1 1 0 1 2 2 3 2 1 2 4 3 2 1 1 0 1 1 0 0 1 2 2 2 1 2 1 1 2 1 7 8 1 2 1 3 1 2 2 0 1 2 2 3 3 2 3 2 2 2 2 4 2 2 2 2 2 1 3 3 2 2 3 1
5 3 3 4 5 7 9 10 8 5 3 2 4 6 9 9 8 7 9 7 2 2 1 1 1 1 2 2 1 1 1 1 2 2 2 2 1 1 1 0 1 1 0 0 1 2 2 2 2 1 1 1 3 10 13 5 1 1 0 2 3 2 1 1 1 3 3 1 2 3 2 1 1 2 3 4 4 3 1 2 1 2 3 2 3 4 0
3 2 3 4 5 8 9 9 7 4 1 3 5 9 11 9 6 5 8 7 2 2 2 1 0 0 2 2 2 2 1 1 3 2 1 3 0 0 1 1 1 2 1 0 1 3 2 2 2 1 2 2 3 10 12 6 2 2 1 3 6 4 0 1 1 3 4 2 1 1 1 2 2 2 4 7 6 3 2 2 3 4 3 3 4 3 1
1 1 2 4 6 8 9 8 6 2 2 3 6 10 10 6 2 2 3 4 1 1 1 0 1 1 0 1 2 2 0 2 4 2 1 4 3 1 2 2 1 2 3 2 2 3 2 2 2 2 3 2 3 7 7 5 5 3 3 4 5 2 2 2 2 2 3 1 1 1 2 3 3 4 6 8 7 4 2 2 2 2 4 4 4 2 3
0 1 1 3 6 8 8 6 6 2 3 5 7 9 7 3 2 2 2 1 1 1 1 0 1 1 0 1 1 2 1 2 3 2 2 4 5 2 2 3 2 2 3 1 1 3 2 2 2 2 3 2 4 6 3 5 11 7 2 3 2 2 2 2 2 3 1 1 0 2 2 2 3 6 7 9 9 6 2 2 3 1 3 3 2 2 5
2 2 1 3 5 7 7 5 5 5 4 7 7 7 4 2 2 4 4 2 1 0 1 1 3 2 1 0 1 1 2 2 1 2 2 4 5 2 1 5 5 2 2 0 1 3 2 3 2 1 3 2 3 5 1 4 14 10 3 3 2 2 2 3 3 3 3 3 2 2 3 4 5 8 8 9 11 9 5 3 6 5 2 2 1 2 4
3 3 2 3 5 7 7 5 4 4 5 6 6 4 3 4 4 4 5 3 2 2 3 3 4 3 2 1 1 1 2 3 1 1 1 2 4 3 1 3 5 3 1 1 1 2 1 1 2 1 3 3 2 3 1 3 12 11 4 3 3 0 2 3 3 4 4 3 3 4 5 4 5 9 10 9 8 9 9 7 7 6 3 1 2 4 4
4 3 2 3 5 6 6 5 3 2 3 4 5 4 4 5 5 5 6 6 5 3 3 3 3 2 2 1 1 0 1 2 1 1 0 1 2 2 1 2 3 2 1 1 1 1 2 0 1 1 2 2 1 1 1 2 8 10 5 3 4 2 2 2 2 3 3 2 3 3 4 5 5 9 12 11 9 8 8 7 6 6 2 2 6 6 5
5 5 3 3 5 6 6 6 4 2 3 3 4 4 5 5 6 7 8 4 4 2 2 1 1 1 1 1 1 0 1 1 1 1 1 1 1 1 1 1 1 0 2 1 2 2 2 3 5 5 4 3 3 1 1 1 4 7 4 2 4 2 2 2 1 4 3 2 2 2 5 6 5 9 12 12 9 6 6 5 5 5 4 3 6 4 2
6 6 4 4 4 5 6 5 4 3 2 3 2 4 5 6 7 9 7 2 3 2 1 1 1 1 0 0 0 0 1 2 1 1 1 0 1 1 1 1 1 0 1 1 1 3 6 9 11 12 11 10 8 7 5 2 1 2 2 1 1 1 2 3 2 4 3 2 2 1 2 4 2 5 8 7 6 6 5 5 6 8 6 1 2 2 5
7 6 4 4 4 5 6 6 4 3 2 2 2 3 4 4 7 8 6 3 2 1 1 1 1 1 1 0 1 0 1 2 1 1 1 1 0 2 1 2 1 1 1 2 7 13 13 9 8 7 8 9 8 8 6 2 2 5 4 1 0 1 2 1 1 3 1 2 2 1 2 2 1 2 5 5 4 5 5 4 8 10 5 1 2 4 8
8 7 5 4 5 5 5 6 5 3 3 2 2 3 3 4 7 7 4 3 1 1 1 1 1 1 1 1 1 1 1 2 2 1 2 1 2 3 1 2 1 1 3 8 15 14 6 1 2 2 1 1 3 4 2 3 3 3 5 5 1 2 2 1 1 1 1 2 1 3 3 2 1 2 5 5 3 5 3 1 7 12 6 4 8 8 8
9 8 5 4 4 5 5 6 6 4 3 3 3 3 3 4 6 5 3 4 1 0 1 1 1 2 2 2 1 2 2 2 3 4 5 3 2 3 2 2 2 5 10 14 14 7 1 2 1 1 2 3 1 2 1 4 6 5 2 2 3 1 1 2 1 1 1 3 1 2 3 1 1 1 6 7 3 5 4 1 6 12 7 3 9 9 9
9 9 6 4 3 4 5 6 7 6 5 4 4 4 4 5 5 4 3 4 1 1 2 2 1 1 1 1 1 2 2 3 3 2 4 3 4 3 2 2 6 9 11 11 6 1 2 1 0 1 2 2 0 2 1 2 3 6 7 3 0 1 1 1 1 1 0 2 3 3 4 2 3 2 5 5 4 5 4 2 4 10 6 4 8 9 11
9 9 7 4 3 4 4 6 7 7 8 7 7 6 5 4 3 3 4 5 4 2 1 1 1 1 1 1 1 1 2 2 3 1 2 4 4 3 3 5 8 8 7 5 1 1 1 0 2 1 1 1 1 1 1 1 1 4 6 4 2 3 1 3 1 1 0 2 4 3 2 2 3 5 5 4 4 6 5 2 2 8 7 6 9 9 12
10 9 8 5 3 3 4 5 6 7 8 9 8 7 5 4 5 5 4 7 7 2 1 2 1 2 2 2 3 2 1 1 2 2 2 2 3 4 6 5 4 4 3 1 2 2 1 1 2 1 0 0 1 2 1 2 2 3 5 6 6 6 2 2 1 2 1 2 4 2 2 2 4 8 8 8 7 4 3 2 1 7 8 6 10 10 11
9 9 8 6 4 4 4 5 6 6 7 8 7 7 5 4 5 5 5 8 8 4 3 3 3 2 2 2 2 2 1 1 1 1 1 2 4 7 9 6 3 4 4 1 1 1 2 2 2 2 1 1 1 2 1 2 3 4 6 7 7 6 3 1 3 3 2 3 4 3 2 2 5 9 12 13 7 2 3 1 2 6 7 5 9 9 9
9 10 9 6 5 4 4 4 6 7 6 6 5 5 5 5 4 5 7 11 10 5 5 7 6 5 4 3 1 2 2 2 1 0 1 2 2 6 10 8 4 5 5 2 1 1 2 1 1 2 1 1 1 1 1 2 2 3 5 4 2 3 3 2 4 4 3 4 5 3 2 2 5 12 15 12 3 3 1 2 2 5 2 7 7 5 5
9 10 9 7 6 5 4 4 5 6 7 7 6 5 5 4 4 5 8 13 14 9 8 11 11 10 9 8 7 6 4 4 2 1 0 0 3 7 7 4 3 5 4 2 1 1 2 1 1 1 1 1 1 1 1 2 2 2 4 3 2 3 2 2 3 2 2 3 3 2 2 2 10 18 16 7 0 1 2 3 3 2 5 9 7 6 10
9 10 9 7 6 6 5 4 5 6 7 8 9 11 11 8 7 6 8 16 23 17 11 13 14 13 13 13 11 9 7 6 4 2 1 1 7 8 2 1 4 5 2 2 2 1 1 2 1 0 1 2 1 1 2 2 1 2 2 2 3 3 1 2 3 2 1 2 3 3 2 4 16 20 10 4 4 2 2 4 3 5 9 11 12 13 18
8 9 9 8 7 7 6 5 5 6 7 10 12 14 14 12 13 12 10 17 24 18 11 12 13 12 13 13 12 12 10 8 6 5 2 3 7 5 1 1 3 3 0 1 1 1 1 1 1 1 2 1 1 1 1 2 3 2 2 1 3 4 2 2 2 2 2 3 4 3 1 8 16 13 4 4 7 2 1 3 7 10 10 13 16 17 21
7 9 10 9 7 7 7 6 6 6 7 10 10 10 11 11 12 13 13 17 21 17 13 13 13 12 13 12 12 13 12 11 10 9 7 5 6 7 3 0 1 2 1 0 2 2 1 1 2 2 2 2 2 2 1 1 2 3 4 2 4 5 3 3 4 4 4 5 4 2 2 7 10 8 5 5 6 6 7 9 12 12 11 14 19 21 24
7 8 9 9 7 7 6 6 6 6 7 9 8 7 10 14 14 15 17 20 23 19 15 13 13 13 14 13 13 14 13 12 11 11 9 6 4 6 5 3 2 2 2 1 1 1 2 2 1 2 3 2 2 2 3 4 3 3 4 4 4 4 2 2 4 4 5 8 7 5 6 8 9 8 8 9 11 13 13 15 17 15 15 18 22 25 26
7 8 8 8 7 6 6 6 6 6 7 8 7 7 10 13 16 17 16 17 17 15 13 13 13 12 12 13 13 13 13 13 11 9 10 8 5 4 5 5 4 3 3 5 4 4 5 4 1 2 3 1 1 2 4 4 2 2 3 3 3 5 4 3 3 2 3 5 7 7 7 9 9 9 11 14 16 16 17 18 19 18 19 21 22 24 25
8 8 8 8 7 6 6 5 6 7 8 7 7 8 10 12 13 10 8 9 12 11 8 8 11 11 11 12 14 15 14 14 13 9 8 10 9 7 7 8 9 7 7 8 8 7 8 4 1 3 4 2 2 2 2 3 2 1 2 3 2 3 4 3 3 3 3 3 4 6 9 11 10 10 12 14 17 19 19 21 22 21 20 20 20 21 22
8 8 8 8 8 7 7 6 5 6 7 8 9 8 8 10 9 5 6 11 15 12 7 5 8 10 11 13 16 16 14 14 13 10 9 10 10 9 8 10 12 12 13 13 13 12 10 5 2 3 3 2 3 2 2 2 2 1 3 4 3 3 2 2 2 4 5 4 4 6 9 10 10 11 13 14 17 19 19 20 20 20 19 18 17 16 17
8 8 8 8 8 8 8 7 6 6 6 7 9 8 7 7 6 5 9 11 9 7 5 4 7 10 13 15 15 14 13 12 11 11 11 11 10 9 7 7 9 11 12 13 13 13 11 6 4 3 3 4 5 4 3 2 2 2 4 5 6 3 3 1 2 4 5 3 4 4 5 6 6 8 12 15 17 18 18 18 17 17 17 17 16 15 14
7 7 7 8 8 9 9 8 7 6 6 6 7 7 7 7 6 7 7 4 3 6 9 8 8 8 10 13 13 12 12 12 11 11 12 12 11 10 8 6 7 8 9 10 10 8 6 5 4 2 2 5 5 3 2 2 3 4 5 6 7 4 2 1 2 5 5 5 7 7 7 7 7 9 12 14 13 14 15 15 14 14 13 13 13 13 12
7 7 7 8 9 9 10 9 8 7 7 6 6 7 7 7 7 7 6 4 8 14 15 11 8 6 7 10 11 11 10 11 12 12 13 13 13 13 12 12 13 13 14 15 13 8 6 5 5 4 4 4 3 2 1 2 3 4 5 7 7 4 2 3 5 7 7 8 9 10 10 10 10 10 12 11 10 10 12 12 11 11 10 9 8 8 8
7 7 7 8 9 10 11 11 10 8 8 8 8 7 6 6 6 7 7 8 12 14 12 8 5 5 7 10 12 10 9 10 11 12 14 15 16 16 15 16 17 17 17 17 14 8 5 6 6 6 6 5 3 2 1 2 3 4 6 8 9 8 7 8 8 9 9 10 11 12 13 14 13 12 11 10 9 9 10 10 10 9 8 7 5 5 5
8 7 8 8 10 11 12 12 11 10 9 8 7 5 4 5 5 7 8 10 10 10 10 8 5 4 5 8 11 11 10 9 9 11 13 15 16 17 16 17 18 18 18 18 14 8 5 5 4 5 7 8 6 3 1 3 5 4 6 8 11 13 13 12 12 11 12 13 14 15 14 13 12 10 9 8 8 8 8 9 9 9 8 8 7 5 5
8 8 9 9 10 11 12 13 12 11 8 6 4 4 5 6 7 8 10 10 9 9 9 8 4 1 1 4 8 10 9 8 9 10 11 12 13 15 16 17 17 17 16 14 11 7 5 5 6 7 9 10 7 3 2 4 5 3 5 8 11 12 13 13 12 12 13 14 13 11 9 8 8 7 6 6 5 5 6 7 8 8 7 7 8 7 6
10 10 10 11 11 11 11 12 13 11 7 5 4 6 7 8 8 10 12 11 9 9 7 5 2 0 0 3 6 9 8 7 9 11 11 11 11 12 13 14 14 14 13 10 7 5 5 7 7 9 10 11 7 3 2 4 3 2 4 8 10 10 11 11 11 12 11 9 7 6 6 6 5 5 4 4 4 4 4 5 6 6 5 5 6 6 5
13 13 13 12 12 12 12 12 12 10 7 6 6 7 8 8 9 11 12 10 9 7 5 4 3 1 1 1 4 7 8 7 8 9 9 9 11 10 10 11 11 11 11 10 7 5 6 7 7 5 6 8 6 3 2 3 3 3 5 7 8 8 8 9 10 9 7 5 4 5 6 5 4 4 5 4 3 3 3 2 3 3 3 3 3 2 3
15 15 14 14 13 13 12 12 11 9 7 7 7 7 7 8 9 10 11 9 7 5 3 4 3 1 1 1 2 5 7 8 8 7 6 7 11 10 8 8 8 7 7 7 6 4 5 6 5 3 3 4 4 3 2 2 3 4 5 6 7 6 6 5 5 5 3 3 3 4 4 3 2 2 3 4 3 3 2 1 0 1 2 2 2 1 1
17 16 15 14 13 13 12 11 9 7 7 7 8 8 8 8 9 9 9 7 5 3 3 4 3 1 1 1 1 3 5 5 6 7 5 5 7 9 8 6 5 4 5 6 5 4 4 5 4 2 2 2 2 1 1 2 3 4 4 4 5 5 4 3 1 3 3 2 3 3 2 2 2 1 1 3 3 4 4 4 3 3 4 4 4 4 4
17 15 14 14 13 11 10 9 7 7 8 10 11 11 10 10 9 8 7 6 5 5 5 6 3 1 1 2 1 2 3 3 3 5 6 5 4 7 8 5 2 3 4 4 3 4 5 6 4 2 2 2 2 1 2 4 5 6 6 4 3 2 2 4 2 3 4 4 3 3 1 1 3 3 3 3 4 4 3 3 3 4 5 6 6 6 5
16 15 14 13 11 9 8 7 7 8 11 13 13 11 9 8 7 6 5 5 5 5 6 5 3 2 2 3 2 3 3 3 2 3 5 5 3 3 5 4 2 2 2 1 3 4 4 4 3 2 2 2 2 5 7 8 8 8 8 7 5 4 4 4 2 2 4 3 1 1 1 2 4 4 4 4 3 2 2 3 4 5 7 8 8 7 4
16 15 14 11 8 7 8 9 10 12 13 12 9 6 5 4 4 2 3 4 4 4 5 4 3 2 3 2 3 4 4 3 2 2 2 3 3 2 2 2 2 2 2 1 2 4 3 1 2 2 1 1 2 7 9 9 8 8 8 7 7 7 5 4 3 2 3 2 3 2 2 3 3 3 3 2 1 1 1 2 3 6 8 8 7 6 3
15 13 11 9 8 9 11 13 13 12 10 7 5 4 4 4 3 1 2 3 3 3 3 3 4 5 5 4 3 4 4 4 3 3 2 3 3 2 2 2 2 2 1 1 2 3 2 1 1 1 2 2 3 7 9 8 8 8 7 6 6 7 7 6 5 2 2 2 3 4 4 4 4 2 2 2 2 1 1 2 4 7 8 7 6 5 2
13 10 9 10 12 14 15 13 11 8 6 4 3 3 2 3 3 2 2 2 1 1 3 4 3 4 5 5 4 4 5 5 5 5 4 3 3 2 2 1 1 1 1 0 2 2 2 2 1 0 2 4 7 9 9 8 7 7 7 6 6 6 6 6 6 4 3 4 5 6 6 6 5 4 3 4 3 3 3 4 5 7 8 6 6 5 3
10 9 11 14 15 15 12 8 6 4 3 3 2 2 1 1 1 2 2 1 2 2 2 3 4 4 6 7 6 5 4 4 4 3 3 2 2 3 2 0 1 2 1 0 1 1 2 1 1 1 3 7 10 10 8 7 6 5 5 6 6 6 6 5 5 5 5 6 6 6 6 6 6 5 5 5 4 4 4 4 5 7 7 7 6 6 4
10 12 15 15 12 10 6 4 3 3 2 2 2 1 1 1 1 1 1 1 3 3 4 5 7 7 7 6 6 5 4 4 4 4 3 2 1 2 2 2 1 2 1 0 1 2 2 1 2 2 5 10 11 9 7 6 5 4 4 4 4 5 5 5 5 6 6 6 6 5 5 5 4 4 4 4 4 4 4 5 6 7 7 7 7 6 5
13 14 14 10 6 5 3 1 2 1 1 0 1 2 1 1 1 0 1 2 4 4 6 8 8 6 4 4 4 4 4 3 3 4 3 2 2 2 2 1 1 1 1 1 1 1 1 2 2 2 7 12 12 9 6 5 4 3 2 1 1 1 2 3 4 5 6 6 6 6 5 5 5 4 4 4 4 5 6 7 7 7 7 7 7 7 6
14 11 9 5 2 2 2 0 1 0 1 1 1 2 2 2 2 1 3 5 7 8 9 11 10 7 6 4 3 3 2 2 3 2 1 1 2 2 1 1 1 1 1 1 1 1 1 1 2 4 9 13 12 8 5 4 3 2 1 1 2 2 3 4 4 5 6 6 6 7 6 6 5 5 5 6 7 8 8 8 8 7 7 7 7 8 8
10 8 6 3 1 1 1 0 1 0 1 2 2 2 4 4 4 5 7 9 10 12 12 11 10 9 7 4 3 3 3 3 2 2 1 1 2 1 1 1 1 2 2 1 0 1 1 1 2 6 11 12 10 7 4 3 2 3 4 5 4 5 5 6 6 7 8 8 8 9 9 8 8 8 8 8 8 9 9 9 9 9 8 8 8 9 9
7 6 4 3 1 0 1 0 1 1 1 2 2 4 8 11 11 10 10 11 12 13 13 11 10 9 7 5 3 3 3 3 2 1 2 1 2 1 1 1 1 1 1 1 1 2 2 1 4 9 12 11 7 5 3 2 3 5 5 5 5 5 5 6 7 8 9 9 10 10 10 10 10 10 10 10 10 9 10 10 10 9 9 9 9 9 9
6 4 2 2 2 1 0 2 3 2 2 5 9 13 15 16 14 12 11 12 13 13 12 10 9 7 5 4 3 2 3 4 2 1 1 1 2 1 1 1 1 1 2 2 2 1 2 5 9 12 11 8 5 3 1 2 4 4 4 4 4 5 6 7 8 9 10 10 11 11 10 10 11 11 11 10 10 10 10 10 9 9 9 9 9 10 10
5 3 3 3 3 1 2 5 6 4 4 9 14 16 16 16 15 14 13 13 12 11 10 9 8 4 2 3 2 1 2 2 1 0 1 2 1 1 1 1 0 1 2 2 1 2 6 9 11 11 8 5 3 1 2 4 5 5 5 5 6 7 8 9 10 10 11 12 11 11 11 11 11 10 10 10 10 10 11 11 11 10 9 10 10 10 10
3 3 3 3 3 3 4 7 6 3 3 8 13 15 16 18 17 14 11 11 11 10 8 7 5 3 1 2 2 1 1 0 1 1 1 1 1 1 2 1 1 2 2 3 3 6 10 11 10 8 6 3 1 2 3 5 6 6 6 7 8 9 10 10 10 11 11 11 11 10 10 9 9 9 9 10 10 11 11 11 11 10 9 9 9 9 9
3 3 2 2 4 6 7 7 6 4 5 9 14 15 17 17 16 12 10 11 11 8 5 3 3 3 2 2 1 1 1 1 1 1 1 1 1 2 2 1 2 3 4 5 7 9 10 10 8 6 3 0 2 4 5 6 6 6 7 8 9 10 10 9 9 9 9 9 9 9 8 8 9 9 10 10 11 11 11 11 10 10 9 9 9 9 9
2 3 2 3 6 10 9 8 9 11 13 14 16 16 16 15 13 12 11 10 8 5 4 4 3 2 1 1 1 2 2 1 1 1 0 1 2 2 1 1 3 6 8 8 8 8 9 8 6 3 1 2 3 4 6 6 7 7 8 9 9 8 8 8 8 7 7 7 8 9 9 9 9 10 10 11 11 11 10 10 11 11 11 10 9 9 9
Wind_Direction
314 307 304 317 327 329 330 335 343 352 359 94 162 163 153 140 109 127 151 161 162 60 48 42 1 323 313 319 258 266 306 286 318 353 16 8 348 349 344 265 296 71 154 328 355 2 352 31 42 357 57 88 339 351 14 47 226 50 106 100 320 314 11 296 279 286 289 315 58 129 148 136 123 40 22 24 301 286 260 242 169 160 182 163 203 243 227
321 306 304 321 328 329 331 337 345 351 12 112 149 146 132 116 100 121 151 161 139 51 99 96 5 304 333 1 347 301 270 271 343 357 9 5 352 356 12 321 347 350 333 13 1 350 355 44 51 28 50 70 2 17 26 27 333 1 192 176 165 173 314 305 309 311 284 245 153 169 163 79 58 20 10 11 347 321 293 124 132 214 203 177 223 241 131
325 293 313 328 330 333 335 341 347 355 73 133 144 139 130 115 93 111 151 163 131 66 124 140 104 311 354 15 8 350 284 14 12 1 4 10 354 189 1 331 342 347 335 352 31 22 17 18 27 31 359 326 357 26 25 10 345 356 358 139 154 159 104 164 194 262 251 244 224 210 293 336 331 352 1 11 12 332 290 150 182 220 189 161 217 229 85
312 278 340 335 334 339 340 347 358 13 158 154 146 144 138 124 100 101 146 179 216 40 63 75 145 166 29 75 10 5 319 355 8 12 20 15 19 44 16 340 348 19 3 354 29 28 5 359 38 26 352 322 330 2 10 6 10 24 69 96 132 129 69 147 159 194 241 285 357 314 323 308 313 348 357 2 2 331 281 210 202 188 155 183 222 176 138
99 103 12 342 343 348 346 354 12 38 162 167 156 151 144 126 145 143 128 179 253 336 317 130 124 145 143 146 358 8 345 327 5 32 38 25 23 36 35 18 28 22 3 6 27 12 1 28 47 2 340 297 301 333 348 19 16 20 63 46 77 131 113 152 120 100 119 109 286 298 340 14 6 6 2 360 2 358 289 257 322 355 175 204 245 153 166
124 123 39 357 354 353 351 3 26 50 125 159 161 153 145 126 139 143 140 156 224 339 208 151 116 96 89 111 327 18 18 3 21 14 12 29 26 30 56 31 30 12 349 88 6 1 27 33 11 325 351 334 313 342 350 20 18 20 14 14 48 147 143 158 142 118 131 142 141 108 102 91 42 29 22 13 15 23 29 6 352 341 278 286 348 170 167
130 124 64 15 4 360 358 8 31 55 100 145 161 153 136 125 119 131 139 128 90 99 125 129 111 80 34 26 37 67 38 23 18 305 344 26 16 17 52 10 6 358 329 161 28 15 105 31 341 302 8 353 317 353 332 358 16 16 4 11 22 80 136 152 158 142 136 136 128 116 121 119 49 32 30 28 32 39 40 28 5 358 344 298 164 139 84
136 127 85 30 18 12 4 8 28 62 87 129 156 160 158 145 132 136 129 100 66 76 108 129 119 55 5 51 44 88 115 23 358 258 65 54 359 10 44 356 346 354 10 99 99 90 131 111 311 266 3 352 293 27 342 316 357 1 2 6 350 328 152 125 131 158 153 127 128 124 121 124 75 37 29 26 33 38 29 18 10 6 8 143 144 125 67
144 137 102 47 33 28 15 13 26 59 93 112 132 150 166 165 155 150 141 101 19 21 62 84 120 46 7 84 46 154 169 346 321 231 252 127 127 12 11 328 317 46 3 14 145 149 173 226 259 256 250 267 279 328 26 6 349 350 355 350 342 347 134 127 169 200 189 101 104 128 130 136 95 38 23 15 20 22 360 1 14 354 345 127 137 131 99
148 144 109 61 46 43 32 23 25 44 103 120 112 131 152 161 161 158 151 115 4 15 82 55 93 125 74 86 271 272 308 321 314 207 305 312 148 2 324 215 173 18 326 299 220 293 292 280 277 268 256 258 266 275 294 312 283 306 332 331 336 6 147 147 192 217 190 84 15 346 147 168 147 36 15 353 0 15 7 13 13 348 331 276 179 131 122
151 145 118 74 57 52 44 37 36 49 96 120 113 129 145 158 163 161 148 119 32 27 119 46 59 130 117 39 229 204 338 333 358 113 357 357 252 313 303 200 229 330 242 270 312 314 310 302 293 276 257 255 257 264 281 293 244 245 237 225 57 117 137 120 207 226 206 44 7 227 215 247 188 72 5 329 331 12 21 25 6 349 335 11 79 107 118
154 148 128 91 63 56 51 46 48 60 83 101 127 145 159 163 163 163 143 121 105 9 94 70 69 112 79 55 156 213 274 317 326 261 255 276 287 292 255 175 169 301 276 298 311 313 314 3 35 63 142 233 235 238 228 78 48 281 242 245 253 138 126 109 197 233 89 94 155 190 208 310 176 146 4 348 315 344 340 290 12 5 4 79 104 115 110
158 152 137 107 69 58 51 43 48 64 80 104 133 144 161 166 169 173 143 118 123 39 95 96 72 85 72 61 28 280 270 290 307 268 236 235 270 273 227 185 239 291 297 304 312 317 123 116 16 66 70 46 75 205 179 77 49 27 347 266 267 230 167 139 142 347 110 143 147 162 158 50 85 161 11 8 341 342 335 229 26 14 3 95 117 118 107
159 155 144 123 84 63 49 39 45 58 71 94 115 122 138 152 162 174 147 115 92 20 103 122 97 80 77 38 336 313 313 329 328 270 214 226 257 257 254 282 293 299 302 304 315 20 128 102 64 95 22 17 184 205 69 71 56 37 35 29 345 222 221 182 134 8 125 123 89 111 153 105 48 15 7 8 338 331 327 279 18 13 9 104 121 120 116
160 158 149 139 111 73 54 44 46 56 68 81 96 103 108 116 130 169 171 138 120 86 69 97 163 176 156 59 14 351 352 352 343 300 246 257 253 252 318 324 312 309 306 302 333 112 178 106 98 89 345 336 254 273 8 14 23 43 36 21 56 98 201 253 216 154 299 121 110 111 163 120 24 344 342 355 330 311 300 259 16 7 15 101 122 117 119
160 159 153 150 137 91 70 59 53 59 69 73 78 83 87 93 102 114 143 140 131 117 38 55 77 145 139 88 55 45 53 3 331 311 289 287 285 312 339 341 330 332 332 329 90 76 68 114 115 133 138 54 307 296 328 335 335 24 20 6 30 56 58 252 171 114 71 97 102 74 81 90 353 331 324 328 324 297 274 217 81 358 4 95 124 120 120
160 159 155 154 145 116 93 74 66 67 71 70 67 69 75 99 118 125 135 125 112 81 57 79 71 84 109 92 49 52 57 26 1 344 321 330 323 330 346 2 20 11 17 71 119 56 66 98 117 112 105 83 299 283 316 352 358 359 351 353 19 31 15 358 59 73 84 91 93 77 69 43 343 325 319 323 321 215 203 170 55 350 356 103 124 119 118
159 158 155 151 146 134 114 90 81 78 75 68 60 64 75 84 108 144 145 125 108 77 68 83 79 78 83 67 59 82 47 15 32 260 286 305 308 324 339 354 13 10 15 42 105 72 77 80 89 99 92 22 338 309 318 354 15 352 325 316 6 32 18 34 61 65 57 74 99 98 61 22 334 320 318 320 299 176 151 1 337 336 24 124 120 97 97
158 158 156 149 142 137 128 107 90 81 77 72 63 72 80 72 96 149 148 120 108 100 91 88 82 79 78 69 73 81 60 34 33 15 311 3 332 322 323 341 8 360 4 48 90 73 79 77 55 89 90 57 40 89 66 10 1 330 302 304 14 30 21 33 44 44 32 63 101 100 101 45 341 329 324 329 54 152 13 353 310 338 108 124 111 93 104
158 159 158 149 138 134 133 122 102 90 86 86 84 85 82 78 93 137 154 122 111 106 100 93 86 79 75 70 68 70 59 44 36 35 147 305 332 329 313 69 1 350 359 63 71 61 86 98 115 75 72 73 100 119 105 96 70 344 330 13 30 354 329 61 44 3 25 67 60 63 101 346 340 336 333 6 22 19 32 25 57 99 107 109 101 102 113
158 160 159 153 141 134 134 126 118 111 102 105 106 95 85 86 94 102 117 117 111 107 103 98 88 77 71 66 60 57 50 42 33 19 351 334 348 1 129 184 351 3 25 33 61 98 89 95 109 96 74 51 41 130 132 128 105 47 8 66 50 1 350 84 47 337 14 59 49 49 2 323 338 348 2 8 2 2 145 79 96 107 106 104 100 101 111
156 159 161 158 146 137 135 128 127 127 117 120 124 104 86 91 100 103 107 107 104 104 105 101 89 79 75 67 56 50 43 37 34 25 14 9 20 41 79 193 4 67 95 15 90 98 89 109 107 92 81 56 51 78 84 78 73 27 0 22 51 32 35 89 71 47 58 72 71 63 15 346 353 12 31 24 41 89 123 124 116 110 111 115 112 110 115
152 157 159 158 149 138 134 128 128 134 130 129 135 121 100 100 106 112 111 105 101 99 99 98 95 87 75 63 52 46 40 35 32 26 25 28 33 43 50 45 48 56 34 39 95 108 96 107 110 88 83 57 39 71 74 64 58 25 22 45 56 46 52 108 85 80 86 76 63 49 35 25 25 40 58 74 88 97 108 117 116 116 123 127 122 119 118
151 154 155 153 149 139 129 123 122 135 140 132 131 133 124 118 115 112 107 103 102 100 94 89 87 78 63 54 48 45 42 37 30 27 33 39 45 50 44 45 59 68 62 73 96 112 102 98 114 99 86 36 344 66 69 61 54 19 36 64 60 42 45 69 77 87 110 78 47 32 37 39 42 60 74 83 89 91 92 100 109 117 122 124 122 120 119
156 156 151 147 145 137 128 118 110 126 142 141 135 136 135 132 127 113 97 101 107 107 100 82 75 71 64 56 50 46 42 35 30 33 43 46 52 65 66 66 74 83 86 88 94 96 90 82 87 98 85 21 357 45 54 54 49 6 34 61 44 21 35 46 51 56 74 78 56 54 64 64 64 74 83 88 93 94 93 94 100 106 110 113 116 116 116
164 164 158 152 147 138 132 123 110 118 139 150 150 150 146 144 138 115 106 111 106 99 98 91 83 80 71 58 51 46 41 35 34 43 52 49 48 54 64 76 82 85 87 87 85 83 82 77 63 80 75 44 39 52 65 75 66 40 59 45 349 336 21 30 61 85 87 93 106 101 86 74 69 77 92 103 105 103 101 100 99 101 104 109 113 114 114
168 171 168 163 158 148 140 135 125 118 129 149 159 164 165 163 158 135 126 120 101 86 99 111 100 87 70 59 54 50 48 46 44 48 54 52 45 43 54 79 95 93 86 82 78 77 77 77 66 57 70 85 80 63 63 84 81 73 64 26 352 15 90 113 116 109 103 111 144 144 110 86 84 94 107 114 112 107 106 105 103 103 106 109 115 122 123
172 175 176 172 169 163 153 148 141 126 118 130 149 163 171 175 173 159 150 142 115 123 128 120 108 95 72 60 59 61 63 61 56 58 62 61 55 54 62 89 113 108 95 88 81 71 65 78 86 69 85 104 92 59 44 81 72 65 50 6 351 18 92 184 98 92 96 118 136 135 118 110 120 125 122 119 114 107 105 105 104 104 107 108 111 120 130
173 176 178 175 174 170 162 156 151 141 131 126 129 144 157 163 167 165 158 136 128 128 122 107 91 83 67 60 63 69 71 68 64 66 68 66 64 66 73 88 98 99 97 95 90 77 67 82 89 69 66 90 94 63 61 71 65 61 34 6 7 33 72 89 94 94 98 114 124 123 118 121 131 135 129 123 117 108 105 105 104 102 103 105 105 110 124
167 170 175 173 171 170 166 162 157 149 143 136 132 135 136 137 156 163 145 129 133 130 116 101 96 85 69 63 62 66 72 72 71 71 69 67 68 70 76 85 91 95 97 94 88 82 75 77 76 64 59 69 92 103 87 84 86 68 28 23 44 67 76 86 101 106 109 115 120 120 120 123 127 130 128 124 120 114 109 109 107 100 94 93 95 101 109
163 165 168 166 164 164 165 163 160 155 150 143 138 140 135 129 149 161 148 139 141 132 110 101 105 101 74 56 49 53 63 68 70 72 71 68 68 72 78 83 86 89 90 85 79 75 61 52 61 58 50 59 79 93 83 100 102 75 26 37 61 73 78 88 101 107 113 120 121 119 120 123 125 128 129 125 118 111 106 104 100 93 85 79 81 90 95
158 157 156 153 153 159 163 163 161 159 156 148 135 139 146 143 146 154 155 151 145 133 115 102 91 85 73 46 40 44 57 70 74 74 70 67 69 74 76 76 77 78 79 77 71 58 38 44 64 61 51 59 78 93 66 85 96 67 35 57 74 79 84 93 102 108 118 125 124 120 123 127 128 129 132 132 124 109 99 92 84 79 79 80 84 90 93
151 148 146 144 145 150 155 158 161 162 159 144 126 126 136 140 144 152 156 151 140 131 118 99 85 68 57 52 42 40 50 70 73 66 61 61 69 74 71 68 70 69 67 66 64 55 51 59 66 63 57 59 69 81 67 68 68 47 60 76 84 88 90 98 108 116 120 121 118 118 123 129 132 136 144 151 141 116 102 93 79 73 76 83 87 90 91
147 143 141 139 138 139 141 146 153 158 153 142 136 132 131 133 139 150 155 150 139 127 102 82 92 94 26 52 45 38 44 58 62 56 52 57 67 74 68 63 64 63 57 56 59 65 58 47 44 50 48 41 41 60 87 68 53 63 88 94 95 97 102 113 124 126 115 96 98 111 115 118 132 146 158 170 171 153 142 122 87 70 66 66 66 73 78
147 144 142 139 136 136 137 138 143 147 142 138 140 139 137 134 136 146 156 155 144 132 93 81 101 100 58 70 34 30 43 53 54 52 52 56 62 65 63 59 58 52 46 48 52 55 44 33 31 32 3 359 21 58 71 54 57 77 100 110 107 106 111 124 139 144 126 101 119 122 103 89 97 144 177 197 206 202 198 188 104 358 359 9 353 328 322
148 145 144 142 140 139 139 138 140 143 141 140 140 135 134 136 134 139 150 153 142 132 117 105 101 97 111 123 59 31 48 51 45 47 53 56 53 51 54 65 61 37 34 44 47 41 35 35 41 44 359 7 36 39 14 48 63 63 81 110 119 115 101 84 145 206 210 188 168 152 104 58 25 339 246 248 263 272 274 281 293 306 323 329 318 308 302
148 146 146 146 145 143 142 142 145 144 140 137 132 124 122 126 128 127 126 119 104 100 113 117 105 76 126 128 76 28 39 38 36 42 43 41 40 41 46 58 60 12 32 45 32 20 32 41 50 69 54 30 28 49 88 89 78 59 57 70 80 67 25 5 332 240 219 206 194 190 206 308 315 309 293 290 299 307 309 315 331 346 345 332 317 311 307
147 146 148 149 147 145 146 150 150 144 138 133 127 119 113 113 114 105 86 79 77 75 84 101 105 100 114 105 57 43 53 53 61 61 42 34 42 43 41 52 57 22 41 45 3 12 33 41 45 72 74 29 54 97 101 95 85 73 63 57 47 28 5 356 347 215 198 179 151 202 276 310 315 306 300 304 320 357 32 39 31 18 3 343 324 312 298
148 148 148 150 150 148 149 150 144 138 136 130 120 111 101 91 91 75 37 43 61 62 61 73 88 94 112 112 74 70 75 63 58 72 47 38 49 50 41 58 55 41 74 114 8 19 46 45 19 60 82 22 75 105 105 95 84 72 58 45 40 34 29 45 79 149 181 136 56 17 325 321 324 315 307 307 310 351 26 31 24 13 4 350 333 320 305
150 149 148 150 149 144 142 142 137 133 131 123 104 92 80 62 58 70 54 49 49 41 51 83 97 84 87 105 102 81 72 66 73 98 95 62 57 71 88 88 53 35 73 89 359 13 65 93 36 98 131 142 131 121 112 97 82 67 51 40 36 28 28 43 56 58 234 262 345 347 333 327 328 334 341 328 305 295 326 355 6 4 358 346 328 319 306
150 148 146 143 139 136 135 134 130 123 118 106 80 68 61 46 46 66 76 75 76 59 79 104 109 78 72 87 97 91 85 83 84 95 97 65 49 67 99 95 56 62 110 83 354 22 82 96 62 118 163 157 148 135 119 100 84 69 53 46 40 29 24 31 30 12 334 319 328 334 333 325 313 303 305 305 295 292 308 335 354 355 348 336 321 308 284
148 144 141 137 134 135 132 125 116 109 102 89 67 32 358 18 68 56 48 84 139 130 102 104 109 98 89 88 90 94 100 91 78 86 97 66 51 76 99 71 39 83 107 276 354 40 73 100 117 187 182 166 156 144 126 108 95 76 55 46 43 37 29 21 13 2 348 335 330 329 324 315 303 288 282 282 283 290 307 332 344 340 332 325 316 306 290
146 141 139 136 133 133 128 101 76 80 75 67 74 57 348 1 35 14 10 124 134 124 119 126 125 113 99 92 91 93 99 95 79 76 83 79 67 81 77 42 40 83 101 83 46 70 92 155 172 161 165 167 164 153 136 127 122 102 75 61 50 37 27 21 18 13 2 351 344 336 324 314 307 296 283 277 278 287 303 321 324 320 313 310 306 300 290
147 142 140 137 128 125 128 86 37 73 100 75 113 131 152 163 157 155 145 151 149 140 139 146 146 130 100 93 99 98 98 96 83 72 72 73 62 60 63 54 49 80 89 59 50 59 102 216 216 172 166 170 169 160 148 148 149 136 106 76 17 353 355 358 2 5 3 357 349 338 326 314 304 291 276 272 280 287 294 303 306 303 300 298 294 287 280
149 143 138 127 73 70 116 138 346 64 168 188 157 148 160 171 184 185 156 151 154 151 149 151 150 133 110 100 102 96 93 94 80 63 65 85 57 47 82 114 89 57 73 77 66 84 142 185 205 185 175 171 166 162 164 174 183 203 261 280 272 272 284 297 305 313 322 326 325 321 315 306 293 280 271 274 280 284 286 291 294 295 293 292 285 276 271
150 146 136 119 25 12 83 104 306 257 176 196 211 196 172 156 146 146 149 150 151 150 149 150 147 131 111 97 92 85 84 95 87 42 358 89 88 74 117 124 84 60 67 66 47 207 182 178 186 174 169 165 164 167 180 197 233 270 283 289 287 281 282 289 292 294 295 298 301 302 300 295 290 284 280 280 282 286 290 290 288 288 289 290 287 278 270
148 146 129 108 103 64 66 125 187 173 179 198 186 151 141 136 131 131 138 146 151 150 144 138 133 123 103 87 92 81 60 66 79 22 356 83 108 81 31 80 81 104 130 147 211 233 230 191 162 158 157 160 168 178 194 246 283 288 289 291 290 286 285 289 289 285 280 281 285 287 288 289 290 288 285 281 281 288 297 298 293 290 289 291 290 285 277
148 145 125 115 148 178 196 153 138 95 88 126 130 129 131 130 124 122 132 140 145 149 144 133 127 119 86 62 81 82 43 51 75 54 19 79 108 59 37 49 2 271 188 178 205 222 162 151 153 154 153 154 158 165 206 300 307 308 308 305 301 301 304 304 300 293 286 283 281 279 279 283 287 289 287 284 280 282 289 293 291 290 291 293 292 287 281
135 129 121 116 112 95 126 138 128 94 95 125 130 130 132 129 121 122 131 137 138 143 143 131 124 124 62 31 68 80 32 37 77 71 37 71 107 117 107 114 217 220 188 202 239 177 147 144 146 149 149 145 138 122 325 317 314 313 312 310 310 314 317 316 313 306 300 298 294 289 287 289 290 289 289 288 285 283 286 288 286 286 291 298 298 292 283
116 115 121 115 101 102 124 130 120 88 98 129 133 133 133 131 128 128 135 140 139 138 133 116 102 102 82 47 55 54 14 25 110 97 70 89 136 127 127 157 211 201 184 192 186 158 145 142 144 146 147 139 94 342 326 317 311 306 304 303 307 312 315 315 314 311 308 306 305 302 300 299 299 296 295 295 293 291 291 291 287 284 290 299 301 296 290
107 111 119 124 141 152 152 145 140 145 149 147 144 141 139 138 136 137 141 144 142 135 124 104 85 82 78 58 56 97 134 119 82 63 69 172 157 130 127 198 229 203 168 156 153 151 148 149 152 154 149 89 336 324 317 313 307 301 299 301 306 311 315 316 316 315 313 311 312 314 315 314 313 309 306 303 300 295 291 286 281 280 285 291 294 294 295
114 120 114 118 144 156 158 148 142 147 149 148 146 146 145 143 142 143 145 147 141 129 125 127 109 76 70 110 132 126 114 90 57 46 143 179 181 189 212 193 168 158 149 142 143 152 160 161 158 149 115 327 316 309 306 302 297 293 295 301 306 311 315 318 318 317 315 316 318 320 318 315 313 312 311 309 305 298 289 282 278 278 281 284 286 290 292